pokernet88.net
pokernetqq.com
pokernet88.cc
onlinepokerqq.com

Jackpot

Texas Poker Multi Jackpot System

Kini Telah hadir Jackpot SUPER ROYAL FLUSH

Kini Telah hadir Jackpot 2000 (khusus table VIP keatas).

Ikutilah global jackpot yang tersedia di system kami, dengan system jackpot terbaru dan pertama di indonesia, anda dapat membeli jackpot dengan harga 100 rupiah saja dan menangkan hadiahnya hingga puluhan juta rupiah.

Jackpot bukanlah suatu keharusan untuk dibeli, namun kami memberikan suatu fitur tambahan untuk member tercinta dari www.pokernet88.org.

Terdapat tiga pilihan harga jackpot yang bisa anda beli yaitu :100,500,1000 dan 2000(khusus table VIP Keatas) rupiah.

Hadiah dari Multi jackpot system www.pokernet88.org

  1. full house x 10 harga jackpot yang anda beli.
      (contoh:anda membeli 1000 maka:1000 X10 = 10.000)
  2. four of kind x 250 harga jackpot yang anda beli
      (contoh:anda membeli 1000 maka:1000 X250 = 250.000)
  3. Straight flush x 1200
      (contoh:anda membeli 1000 maka:1000 X1200 = 1.200.000)
  4. Royal flush x 10000 harga jackpot yang anda beli
      (contoh:anda membeli 1000 maka:1000 X10000 = 10.000.000)
  5. SUPER ROYAL FLUSH x 30000 harga jackpot yang anda beli
      (contoh:anda membeli 1000 maka:1000 X30000 = 30.000.000)

Kondisi kartu

  1. full house adalah kondisi kartu dimana kartu anda dan kartu tengah dengan total 7 kartu bisa mendapatkan nilai 5 kartu dengan kombinasi 1 tris(three of kind) dan 1 pair, contoh 3 kartu 10 dan 2 kartu 5
  2. Four of kind adalah kondisi kartu dimana kartu anda dan kartu tengah dengan total 7 kartu bisa mendapatkan nilai 5 kartu dengan kombinasi 4 kartu yang sama jumlah dan 1 kartu apapun juga contoh anda mendapatkan 4 buah kartu angka 3 dan 1 kartu apapun.
  3. Staright flush adalah kondisi kartu dimana kartu anda dan kartu tengah dengan total 7 kartu bisa mendapatkan nilai 5 kartu dengan kombinasi seri / staright dengan kembang yang sama contoh : urutan kartu dari angka 5, 6, 7, 8 , 9 10 dengan kembang yg sama misalnya as hati
  4. Royal flush adalah kondisi kartu dimana kartu anda dan kartu tengah dengan total 7 kartu bisa mendapatkan nilai 5 kartu dengan kombinasi seri / staright dengan kembang yang sama tetapi kartu tersebut haruslah dimulai dari 10. contoh 10, Queen, Jack, King dan aces dengan kembang yang sama
  5. Super Royal flush adalah kondisi kartu dimana Kedua kartu anda digabung dengan 3 kartu pertama meja haruslah royal flush. contoh kartu anda 10,Queen kembang sama dan 3 kartu pertama meja adalah Jack, King dan aces dengan kembang yang sama

Demikian adalah penjelasan dari Multi Jackpot www.pokernet88.org terima kasih dan selamat bermain salam hoki dari kami

Texas Poker Jackpot Winner

TOP SUPER ROYAL FLUSH
No.TanggalNamaPriceWin
119/01 00:10BD_05Super Royal flush6,000,000
218/01 20:33MCAKBLAKSuper Royal flush1,500,000
318/01 18:17MARURSuper Royal flush6,000,000
418/01 14:31BOZLINDA2Super Royal flush3,000,000
518/01 13:23FEFFSuper Royal flush15,000,000
TOP ROYAL FLUSH
No.TanggalNamaPriceWin
119/01 02:08SONGOO_9Royal flush1,000,000
219/01 02:06S3BOCHG4VHRoyal flush1,000,000
319/01 01:58NOTOIIRoyal flush2,000,000
419/01 01:41SAORYSANDYRoyal flush10,000,000
519/01 01:33MALACI22Royal flush5,000,000
TOP STRAIGHT FLUSH
No.TanggalNamaPriceWin
119/01 02:12XXX3788Straight Flush240,000
219/01 02:12C03D5893Straight Flush1,200,000
319/01 02:12OSAKA702Straight Flush1,200,000
419/01 02:10SPY8899Straight Flush600,000
519/01 02:10AYAM_SWLStraight Flush120,000
LATEST JACKPOT
No.TanggalNamaPriceWin
119/01 02:12G4DING08Full House5,000
219/01 02:12TARLENG00Full House1,000
319/01 02:12NANJUNKFull House1,000
419/01 02:12ANCORDAM17Full House1,000
519/01 02:12CUFLYS47Full House10,000
619/01 02:12BENASIB77Four Of A Kind125,000
719/01 02:12DENHOKIASFour Of A Kind50,000
819/01 02:12HXKOJOBIVGFull House2,000
919/01 02:12HJVJKGHFull House5,000
1019/01 02:12FERI6Full House10,000
1119/01 02:12MR_RAJUFull House2,000
1219/01 02:12ANDRI_FUKYFull House5,000
1319/01 02:12DW99CHENGFour Of A Kind125,000
1419/01 02:12RIG3QQ0W3DFull House1,000
1519/01 02:12PAPASSFull House2,000
1619/01 02:12NIPIS87Full House1,000
1719/01 02:12TALIBAN79Full House5,000
1819/01 02:12ZEUS86ZFull House20,000
1919/01 02:12POKER521Full House20,000
2019/01 02:12RYD11Full House5,000
2119/01 02:12DERIAWANFull House5,000
2219/01 02:12XXX3788Straight Flush240,000
2319/01 02:12SELVY88Full House2,000
2419/01 02:12BAPS1405Full House1,000
2519/01 02:12POIL101Full House5,000
2619/01 02:12BEKA_5Full House5,000
2719/01 02:12BEOGARDFull House1,000
2819/01 02:12P7B02915Full House2,000
2919/01 02:12SM4RFull House2,000
3019/01 02:12PIENG22Full House5,000
3119/01 02:12KIDDOO21Full House2,000
3219/01 02:12NUYXXXFull House1,000
3319/01 02:12OLAF13Full House5,000
3419/01 02:12VROSSIBOOLFull House5,000
3519/01 02:12AB3E048BFull House5,000
3619/01 02:12MOVIEFull House2,000
3719/01 02:12BNI_GO88Full House10,000
3819/01 02:12RENIARYANIFull House10,000
3919/01 02:12FLUSH1818Full House10,000
4019/01 02:12J4RV1S_9Full House2,000
4119/01 02:12CLBWASPOFull House5,000
4219/01 02:12CHITON99Full House2,000
4319/01 02:12W4N6SIT777Full House2,000
4419/01 02:12MAY07Full House10,000
4519/01 02:12HRT1NEMFull House5,000
4619/01 02:12HASEL1Full House5,000
4719/01 02:12YARISFLFull House20,000
4819/01 02:12C03D5893Straight Flush1,200,000
4919/01 02:12HOYAPLASFull House1,000
5019/01 02:12OSAKA702Straight Flush1,200,000

Domino Multi Jackpot System

Ikutilah global jackpot yang tersedia di system kami, dengan system jackpot terbaru dan pertama di indonesia, anda dapat membeli jackpot dengan harga 100 rupiah saja dan menangkan hadiahnya hingga puluhan juta rupiah.

Jackpot bukanlah suatu keharusan untuk dibeli, namun kami memberikan suatu fitur tambahan untuk member tercinta dari www.pokernet88.org.

Terdapat tiga pilihan harga jackpot yang bisa anda beli yaitu :100,500 dan 1000 rupiah.

Hadiah dari Multi jackpot system www.pokernet88.org

  1. Murni Kecil x 50 harga jackpot yang anda beli.
      (contoh:anda membeli 1000 maka:1000 X 50 = 50.000)
  2. Murni Besar x 50 harga jackpot yang anda beli
      (contoh:anda membeli 1000 maka:1000 X 50 = 50.000)
  3. BALAK x 100 harga jackpot yang anda beli
      (contoh:anda membeli 1000 maka:1000 X 100 = 100.000)
  4. ENAM DEWA x 6666 harga jackpot yang anda beli
      (contoh:anda membeli 1000 maka:1000 X 6666 = 6.666.000)

Demikian adalah penjelasan dari Multi Jackpot www.pokernet88.org terima kasih dan selamat bermain salam hoki dari kami

Domino Jackpot Winner

TOP ENAM DEWA
No.TanggalNamaPriceWin
119/01 00:45BUFON6666murni enam6,666,000
219/01 00:33ALIE80murni enam6,666,000
318/01 23:34F3L3K3R689murni enam6,666,000
418/01 22:46Q02RXXIINTmurni enam666,600
518/01 21:58LADHANKA08murni enam3,333,000
TOP BALAK
No.TanggalNamaPriceWin
119/01 02:12ADOET123balak50,000
219/01 02:08DADAV202balak100,000
319/01 02:06B74Rbalak10,000
419/01 02:06YU21Nbalak100,000
519/01 02:04TEMPEKTUO1balak100,000
LATEST JACKPOT
No.TanggalNamaPriceWin
119/01 02:12LEMPAYmurni besar50,000
219/01 02:12ADOET123balak50,000
319/01 02:10SIJONN99murni besar50,000
419/01 02:09AADRAX1250murni kecil5,000
519/01 02:09BOAA0078lucky9910,000
619/01 02:09ADOET123murni besar25,000
719/01 02:08DADAV202balak100,000
819/01 02:08DBJS7HDWU9murni kecil25,000
919/01 02:08PELITTmurni kecil25,000
1019/01 02:07E3DDAEEBmurni kecil5,000
1119/01 02:07ELANG1122lucky9925,000
1219/01 02:06B74Rbalak10,000
1319/01 02:06YU21Nbalak100,000
1419/01 02:06BREMPRITmurni besar5,000
1519/01 02:05BREMPRITmurni kecil5,000
1619/01 02:05IW4N98murni besar5,000
1719/01 02:04PUKYAYAM12murni besar5,000
1819/01 02:04TEMPEKTUO1balak100,000
1919/01 02:03SOUL9murni kecil50,000
2019/01 02:03A0FD789Emurni kecil5,000
2119/01 02:02ZOKER05454murni kecil50,000
2219/01 02:01TU4N__MUD0balak50,000
2319/01 02:01FORTUNA899murni kecil25,000
2419/01 02:00JOGJOG74balak10,000
2519/01 02:00DIREJAQQmurni besar50,000
2619/01 02:00C9836872murni besar25,000
2719/01 02:00UTUHLAKIlucky99200,000
2819/01 01:59BHANI888balak50,000
2919/01 01:59SIBOLANGXMmurni besar50,000
3019/01 01:59MURA01murni besar25,000
3119/01 01:59C251BA7Cmurni kecil25,000
3219/01 01:58PEEWEEQmurni kecil50,000
3319/01 01:58TANGGALAMmurni kecil25,000
3419/01 01:58PILATUS22murni kecil50,000
3519/01 01:58CINOSASElucky99700,000
3619/01 01:58DBJS7HDWU9balak50,000
3719/01 01:57JHONONAR99murni kecil50,000
3819/01 01:57AB435CD5balak50,000
3919/01 01:57RANDY889murni besar50,000
4019/01 01:56DD0N19murni kecil5,000
4119/01 01:56LUGUA09balak100,000
4219/01 01:56WIDROW35murni kecil50,000
4319/01 01:56AIDIL018murni besar5,000
4419/01 01:55ANDIYULImurni besar50,000
4519/01 01:55SU2UKImurni kecil5,000
4619/01 01:55PUKYAYAM12balak10,000
4719/01 01:54SLASHPOKERmurni kecil5,000
4819/01 01:53MYLUCKY0murni kecil50,000
4919/01 01:53F3L3K3R689murni kecil50,000
5019/01 01:53AANTOKENbalak100,000

Ceme Multi Jackpot System

Jackpot dilihat dari gabungan kartu pemain dengan kartu bandar. Bandar harus membeli jackpot sebanyak jumlah player yang sedang duduk. Sebagai contoh bila terdapat 3 pemain duduk bermain, dan bandar memutuskan untuk membeli jackpot Rp 1.000, maka pada periode tersebut bandar akan membeli jackpot sebanyak 3xRp1.000 = Rp3.000.

Jackpot bukanlah suatu keharusan untuk dibeli, namun kami memberikan suatu fitur tambahan untuk member tercinta dari www.pokernet88.org.

Terdapat tiga pilihan harga jackpot yang bisa anda beli yaitu :100,500 dan 1000 rupiah.

Hadiah dari Multi jackpot system www.pokernet88.org

  1. Murni Kecil x 50 harga jackpot yang anda beli.
      (contoh:anda membeli 1000 maka:1000 X 50 = 50.000)
  2. Murni Besar x 50 harga jackpot yang anda beli
      (contoh:anda membeli 1000 maka:1000 X 50 = 50.000)
  3. BALAK x 200 harga jackpot yang anda beli
      (contoh:anda membeli 1000 maka:1000 X 200 = 200.000)
  4. ENAM DEWA x 6666 harga jackpot yang anda beli
      (contoh:anda membeli 1000 maka:1000 X 6666 = 6.666.000)

Demikian adalah penjelasan dari Multi Jackpot www.pokernet88.org terima kasih dan selamat bermain salam hoki dari kami

Ceme Jackpot Winner

TOP ENAM DEWA
No.TanggalNamaPriceWin
119/01 01:51ITILSEMPITmurni enam6,666,000
219/01 01:50YULII14murni enam6,666,000
319/01 01:28TUANMUDA89murni enam666,600
419/01 01:23ROJER056murni enam666,600
519/01 01:14MUJUAH_murni enam6,666,000
TOP BALAK
No.TanggalNamaPriceWin
119/01 02:12ARIETOWELbalak200,000
219/01 02:12DANILDEFINbalak200,000
319/01 02:12TORI882balak200,000
419/01 02:11UGIX1988balak100,000
519/01 02:11BALUAP28balak100,000
LATEST JACKPOT
No.TanggalNamaPriceWin
119/01 02:12JAK1988murni besar50,000
219/01 02:12ELLIA99murni besar50,000
319/01 02:12JAYENG99murni kecil50,000
419/01 02:12TENGTLEmurni kecil50,000
519/01 02:12CKILDKILmurni kecil5,000
619/01 02:12LAW1981murni kecil50,000
719/01 02:12ARIETOWELbalak200,000
819/01 02:12DANILDEFINbalak200,000
919/01 02:12GABUTTTmurni kecil50,000
1019/01 02:12TARKEM13murni besar50,000
1119/01 02:12YUHUI01murni kecil50,000
1219/01 02:12TIDID08murni kecil25,000
1319/01 02:12YUHUI01murni kecil50,000
1419/01 02:12DHARA22murni kecil50,000
1519/01 02:12TORI882balak200,000
1619/01 02:11NAYA555murni kecil50,000
1719/01 02:11BOY1705murni besar50,000
1819/01 02:11COOLLINmurni besar5,000
1919/01 02:11FERAVIPNmurni kecil50,000
2019/01 02:11BABAHBALABmurni kecil50,000
2119/01 02:11UGIX1988balak100,000
2219/01 02:11BALUAP28balak100,000
2319/01 02:10DEXPRObalak200,000
2419/01 02:10AZKA0811murni kecil5,000
2519/01 02:10FORTUNE60murni kecil25,000
2619/01 02:10CHIEKAL90murni kecil50,000
2719/01 02:10MUNCIKARImurni besar25,000
2819/01 02:10NUGRAHA008balak100,000
2919/01 02:09ARIETOWELbalak200,000
3019/01 02:09HOKI551balak200,000
3119/01 02:09MERANG772murni kecil50,000
3219/01 02:09ERZA13balak100,000
3319/01 02:09DOLAR122balak20,000
3419/01 02:09ARNOUZmurni kecil5,000
3519/01 02:09TARKEM13murni kecil5,000
3619/01 02:09CODOT66666balak200,000
3719/01 02:09OMTATTO12balak100,000
3819/01 02:09SEPI92murni kecil25,000
3919/01 02:09COCUmurni kecil5,000
4019/01 02:08WINA43murni besar25,000
4119/01 02:08AIRA2014murni besar50,000
4219/01 02:08OMENTOKOMmurni kecil25,000
4319/01 02:08MAYBOY99balak200,000
4419/01 02:08KODIR63murni kecil25,000
4519/01 02:08DUREN021murni kecil5,000
4619/01 02:08SIWEN78balak200,000
4719/01 02:07IGACIZZ88murni kecil50,000
4819/01 02:07USTADZ13murni kecil5,000
4919/01 02:07BHAYU1murni besar5,000
5019/01 02:07ROHMIN12murni kecil5,000